Regional Weather Roundup
Issued by NWS

Home | Current Version | Previous Version | Graphics & Text | Print | Product List | Glossary Off
Versions: 1 2 3 4 5 6 7 8 9 10 11 12 13 14 15 16 17 18 19 20 21 22 23 24 25 26 27 28 29 30 31 32 33 34 35 36 37 38 39 40 41 42 43 44 45 46 47 48 49 50

000
ASUS43 KFSD 250810
RWRSD

WEATHER ROUNDUP FOR SOUTH DAKOTA
NATIONAL WEATHER SERVICE SIOUX FALLS SD
300 AM CDT MON MAY 25 2015

NOTE: "FAIR" INDICATES FEW OR NO CLOUDS BELOW 12,000 FEET WITH NO
SIGNIFICANT WEATHER AND/OR OBSTRUCTIONS TO VISIBILITY.


SDZ001>005-009-010-012>017-250900-
NORTHWEST AND NORTH CENTRAL SOUTH DAKOTA

CITY           SKY/WX    TMP DP  RH WIND       PRES   REMARKS
BUFFALO          N/A     53  51  93 N7        29.80F
FAITH            N/A     54  52  93 N3        29.84F
MOBRIDGE       CLOUDY    57  57 100 NE7       29.79S
$$

SDZ012>016-024>037-041>051-057-063-072>074-250900-
SOUTHWEST AND SOUTH CENTRAL SOUTH DAKOTA

CITY           SKY/WX    TMP DP  RH WIND       PRES   REMARKS
RAPID CTY ARPT CLOUDY    52  51  97 N7        29.84S
PIERRE         CLOUDY    57  57 100 NE6       29.77F FOG
CUSTER         CLOUDY    46  44  93 NE5       29.87F
ELLSWORTH AFB  FOG       52  52 100 N5        29.83  VSB 1/2
PHILIP         CLOUDY    56  55  97 N6        29.79F FOG
PINE RIDGE     CLOUDY    56  53  90 NE5       29.80F
SPEARFISH      FOG       48  48 100 CALM      29.87F VSB<1/4
WINNER         FOG       59  57  93 NE5       29.77F VSB 1/4
$$

SDZ004>011-016>023-039-040-250900-
NORTHEAST SOUTH DAKOTA

CITY           SKY/WX    TMP DP  RH WIND       PRES   REMARKS
ABERDEEN       RAIN      57  56  96 NE9       29.78F FOG
WATERTOWN      RAIN      56  55  97 N6        29.75F FOG
BROOKINGS      CLOUDY    57  55  94 N6        29.74F
SISSETON         N/A     57  57 100 NE8       29.76F
$$

SDZ017-020-022-023-036>040-048>070-250900-
SOUTHEAST SOUTH DAKOTA

CITY           SKY/WX    TMP DP  RH WIND       PRES   REMARKS
SIOUX FALLS    CLOUDY    59  57  93 NW5       29.72F
HURON          CLOUDY    57  57 100 N5        29.75F FOG
CHAMBERLAIN    CLOUDY    57  57  99 CALM      29.77F
MITCHELL       CLOUDY    59  58  96 N6        29.76S FOG
YANKTON        CLOUDY    61  57  88 W3        29.74S
$$

ABBREVIATIONS USED IN REMARKS
   TC - TEMPERATURE IN CELSIUS
  WCI - WIND CHILL INDEX
   HX - HEAT INDEX
  VSB - VISIBILITY




USA.gov is the U.S. government's official web portal to all federal, state and local government web resources and services.